Location: Dittelspoint
(48.7198°N, 10.7214°E)
Time: 23:45:10
(UTC+00:00)

H-2A R/B - Pass Details

Date: 09 April 2020
Orbit: 734 x 837 km, 98.2° (Epoch: 23 May)

Event Time Altitude Azimuth Distance (km) Brightness Sun altitude
Rises 19:57:30 0° 205° (SSW) 3,282 5.2 -18.3°
Reaches altitude 10° 20:00:25 10° 221° (SW) 2,339 4.5 -18.7°
Maximum altitude 20:04:14 21° 269° (W) 1,705 4.4 -19.1°
Drops below altitude 10° 20:07:59 10° 317° (NW) 2,304 5.7 -19.6°
Sets 20:10:51 0° 334° (NNW) 3,218 6.4 -20.0°
